"Pseudo-MPEC" for P1169Y5

Created 2020 Sep 18 3:07:35 UT using Find_Orb

Click here for an explanation of pseudo-MPECs

 
 Astrometry: 
     P1169Y5  C2020 09 158F#Ylavg(*aB3_g0TNeUt$!3daa@\gfw=^?EihVeUfs]+S8X0'kuF51
     P1169Y5  C2020 09 15BbQ)\gqHe4,^4Od+)1LWnW0-7B=rhl:PDDf1o4P]@4qJRs/\*[myF51
     P1169Y5  C2020 09 159#`*AstrometryW#hJqrH;^30rdnlRep+9ACa4vTk\_E:33_fOCSF51
     P1169Y5  C2020 09 159o=apM2U@lvcTd:b/vGUj=h.Q(tZK(redacted;MuE5ko#$\py$9F51
     P1169Y5  C2020 09 16fNjh)Z+Kclicki6S=JYEx.Egy:]V?ssr*lfq@V9#6xNY5\w9;v7#F51
     P1169Y5  C2020 09 16AX6;X/4_\aiN':n]-qM,-A\^4QZTV^VlTh!BM])q20eZGsROYR\TF51
     P1169Y5  C2020 09 16hth?TnM0-)VaKW)SogJ'QiaSm(uy)g8r`F@31Mpg4Bhereyrun_yF51
     P1169Y5  C2020 09 16ujB6C_^%4]Cr%[je(0y9^oZLkYDfM]?(bmK!Q+ihNam0+3l2_T[?F51
     P1169Y5  C2020 09 17Z'SYGg]x)P$*[/sI]5qG@*96pRD+L%2%^Z_T!BS*rW4S@aW#vNK=F51
     P1169Y5  C2020 09 17XS(qR3CWFHoZ-I[PV?gS0-ng1ko6b'To/KGBH$BpMVXwkb-0du=NF51
     P1169Y5  C2020 09 17\2omWd]?ElhT=6Q@nM6B*HforsO0:O!W#^CM+TkexplanationCMF51
     P1169Y5  C2020 09 1775k,RvLJ=B.e;]vBQKw/(5,Uua!48-*]9\Zf7^]YlHO)DK[ID,8*F51

Station data:
(F51) Pan-STARRS 1, Haleakala  (N20.707235 W156.255910)  US/Hawaii.
   Observers N. Primak, A. Schultz, S. Watters, J. Thiel, T. Goggia. Measurer
   PS1 Science Consortium. 1.8-m Ritchey-Chrétien + CCD.

Orbital elements:  P1169Y5
   Perihelion 2020 Sep 25.451005 +/- 5.22 TT = 10:49:26 (JD 2459117.951005)
Epoch 2020 Sep 17.0 TT = JDT 2459109.5   Earth MOID: 0.6013   AutoNEOCP
M 357.80557299 +/- 1.5              (J2000 ecliptic)
n   0.25966462 +/- 0.0178           Peri.  252.22019 +/- 4.6
a   2.43329177 +/- 0.111            Node   115.36590 +/- 1.6
e   0.3666024 +/- 0.0202            Incl.   13.45280 +/- 0.41
P   3.80                   H 20.5   G  0.15   U 10.0  
q 1.54124116 +/- 0.0205    Q 3.32534238 +/- 0.192
From 12 observations 2020 Sept. 15-17; mean residual 0".04
Residuals in arcseconds: 
200915 F51  .05-  .01-    200916 F51  .03-  .02+    200917 F51  .00   .02+    
200915 F51  .02-  .11+    200916 F51  .06+  .00     200917 F51  .01-  .00     
200915 F51  .00   .06-    200916 F51  .01-  .01+    200917 F51  .03-  .04-    
200915 F51  .06+  .05-    200916 F51  .01+  .01-    200917 F51  .02+  .01+    

Ephemerides (geocentric):
Date (UTC) HH   RA              Dec         delta   r     elong  mag " sig PA
---- -- -- --  -------------   -----------  ------ ------ -----  --- ---- ---
2020 09 18 03  01 52 39.554   -23 15 54.44  .62120 1.5425 142.0 21.5 .363 122
2020 09 18 04  01 52 40.375   -23 16 28.27  .62113 1.5425 142.0 21.5 .386 119
2020 09 18 05  01 52 41.191   -23 17 02.07  .62107 1.5424 142.0 21.5 .412 116
2020 09 18 06  01 52 42.003   -23 17 35.84  .62101 1.5424 142.0 21.5 .440 113
2020 09 18 07  01 52 42.811   -23 18 09.58  .62094 1.5424 142.0 21.5 .470 110
2020 09 18 08  01 52 43.614   -23 18 43.28  .62088 1.5424 142.1 21.5 .502 108
2020 09 18 09  01 52 44.412   -23 19 16.96  .62082 1.5424 142.1 21.5 .535 105
2020 09 18 10  01 52 45.206   -23 19 50.60  .62075 1.5424 142.1 21.5 .569 104
2020 09 18 11  01 52 45.996   -23 20 24.21  .62069 1.5424 142.1 21.5 .606 102
2020 09 18 12  01 52 46.781   -23 20 57.79  .62063 1.5423 142.1 21.5 .643 100
2020 09 18 13  01 52 47.561   -23 21 31.34  .62057 1.5423 142.1 21.5 .682  99
2020 09 18 14  01 52 48.337   -23 22 04.86  .62051 1.5423 142.1 21.5 .723  98
2020 09 18 15  01 52 49.109   -23 22 38.34  .62045 1.5423 142.1 21.5 .764  96
2020 09 18 16  01 52 49.876   -23 23 11.79  .62039 1.5423 142.2 21.5 .807  95
2020 09 18 17  01 52 50.639   -23 23 45.21  .62032 1.5423 142.2 21.5 .851  94
2020 09 18 18  01 52 51.397   -23 24 18.60  .62026 1.5423 142.2 21.5 .896  93
2020 09 18 19  01 52 52.151   -23 24 51.96  .62020 1.5423 142.2 21.5 .942  93
2020 09 18 20  01 52 52.900   -23 25 25.28  .62014 1.5422 142.2 21.5 .990  92
2020 09 18 21  01 52 53.645   -23 25 58.57  .62008 1.5422 142.2 21.5 1.04  91
2020 09 18 22  01 52 54.385   -23 26 31.83  .62002 1.5422 142.2 21.5 1.09  91
2020 09 18 23  01 52 55.121   -23 27 05.06  .61997 1.5422 142.2 21.5 1.14  90
2020 09 19 00  01 52 55.853   -23 27 38.25  .61991 1.5422 142.3 21.5 1.19  89
2020 09 19 01  01 52 56.580   -23 28 11.41  .61985 1.5422 142.3 21.5 1.24  89
2020 09 19 02  01 52 57.302   -23 28 44.54  .61979 1.5422 142.3 21.5 1.30  89
2020 09 19 03  01 52 58.020   -23 29 17.63  .61973 1.5422 142.3 21.5 1.35  88
2020 09 19 04  01 52 58.734   -23 29 50.69  .61967 1.5421 142.3 21.5 1.41  88
2020 09 19 05  01 52 59.443   -23 30 23.72  .61961 1.5421 142.3 21.5 1.47  87
2020 09 19 06  01 53 00.148   -23 30 56.71  .61956 1.5421 142.3 21.5 1.52  87
2020 09 19 07  01 53 00.848   -23 31 29.67  .61950 1.5421 142.3 21.5 1.58  87
2020 09 19 08  01 53 01.544   -23 32 02.60  .61944 1.5421 142.4 21.5 1.64  86
2020 09 19 09  01 53 02.236   -23 32 35.49  .61938 1.5421 142.4 21.5 1.71  86
2020 09 19 10  01 53 02.923   -23 33 08.35  .61933 1.5421 142.4 21.5 1.77  86
2020 09 19 11  01 53 03.605   -23 33 41.17  .61927 1.5421 142.4 21.5 1.83  86
2020 09 19 12  01 53 04.284   -23 34 13.96  .61921 1.5421 142.4 21.5 1.90  85
2020 09 19 13  01 53 04.957   -23 34 46.72  .61916 1.5420 142.4 21.5 1.96  85
2020 09 19 14  01 53 05.627   -23 35 19.44  .61910 1.5420 142.4 21.5 2.03  85
2020 09 19 15  01 53 06.292   -23 35 52.13  .61905 1.5420 142.4 21.5 2.09  85
2020 09 19 16  01 53 06.952   -23 36 24.78  .61899 1.5420 142.4 21.5 2.16  85
2020 09 19 17  01 53 07.608   -23 36 57.40  .61893 1.5420 142.5 21.5 2.23  84
2020 09 19 18  01 53 08.260   -23 37 29.99  .61888 1.5420 142.5 21.5 2.30  84
2020 09 19 19  01 53 08.907   -23 38 02.54  .61882 1.5420 142.5 21.5 2.37  84
2020 09 19 20  01 53 09.550   -23 38 35.05  .61877 1.5420 142.5 21.5 2.45  84
2020 09 19 21  01 53 10.189   -23 39 07.53  .61872 1.5420 142.5 21.5 2.52  84
2020 09 19 22  01 53 10.823   -23 39 39.98  .61866 1.5419 142.5 21.5 2.60  84
2020 09 19 23  01 53 11.453   -23 40 12.39  .61861 1.5419 142.5 21.5 2.67  84
2020 09 20 00  01 53 12.078   -23 40 44.76  .61855 1.5419 142.5 21.5 2.75  84
2020 09 20 01  01 53 12.699   -23 41 17.10  .61850 1.5419 142.6 21.5 2.83  84
2020 09 20 02  01 53 13.316   -23 41 49.41  .61845 1.5419 142.6 21.5 2.90  83